| time (UTC) | temp F | wind direction | speed MPH | gust MPH | rain 1hr in | rain 24hr in | rain mn in | humidity % | barometer mb |
| 20260510094402 | 61 | 344 | 6.0 | 11.0 | 0.00 | 0.00 | 0.00 | 69 | 1014.1 |
| 20260510093403 | 61 | 348 | 8.0 | 13.0 | 0.00 | 0.00 | 0.00 | 68 | 1014.1 |
| 20260510092403 | 61 | 327 | 7.0 | 14.0 | 0.00 | 0.00 | 0.00 | 69 | 1014.2 |
| 20260510091403 | 60 | 346 | 7.0 | 15.0 | 0.00 | 0.00 | 0.00 | 70 | 1014.2 |
| 20260510090403 | 60 | 32 | 9.0 | 14.0 | 0.00 | 0.00 | 0.00 | 70 | 1014.2 |
| 20260510085406 | 60 | 336 | 8.0 | 12.0 | 0.00 | 0.00 | 0.00 | 72 | 1014.2 |
| 20260510084406 | 59 | 5 | 8.0 | 14.0 | 0.00 | 0.00 | 0.00 | 73 | 1014.2 |
| 20260510083403 | 59 | 9 | 9.0 | 17.0 | 0.00 | 0.00 | 0.00 | 73 | 1014.4 |
| 20260510082403 | 60 | 24 | 7.0 | 15.0 | 0.00 | 0.00 | 0.00 | 75 | 1014.3 |
| 20260510081403 | 59 | 24 | 7.0 | 11.0 | 0.00 | 0.00 | 0.00 | 78 | 1014.5 |
| 20260510074403 | 58 | 339 | 9.0 | 15.0 | 0.00 | 0.00 | 0.00 | 81 | 1014.3 |
| 20260510073403 | 57 | 333 | 6.0 | 11.0 | 0.00 | 0.00 | 0.00 | 82 | 1014.4 |
| 20260510072404 | 56 | 334 | 7.0 | 11.0 | 0.00 | 0.00 | 0.00 | 83 | 1014.3 |
| 20260510071407 | 56 | 360 | 5.0 | 10.0 | 0.00 | 0.00 | 0.00 | 83 | 1014.3 |
| 20260510070404 | 56 | 323 | 5.0 | 11.0 | 0.00 | 0.00 | 0.00 | 84 | 1014.4 |
| 20260510065404 | 55 | 336 | 5.0 | 10.0 | 0.00 | 0.00 | 0.00 | 85 | 1014.4 |
| 20260510064404 | 55 | 338 | 3.0 | 5.0 | 0.00 | 0.00 | 0.00 | 85 | 1014.4 |
| 20260510063404 | 54 | 46 | 1.0 | 6.0 | 0.00 | 0.00 | 0.00 | 86 | 1014.5 |
| 20260510062404 | 53 | 9 | 1.0 | 4.0 | 0.00 | 0.00 | 0.00 | 89 | 1014.6 |
| 20260510061404 | 53 | 5 | 1.0 | 3.0 | 0.00 | 0.00 | 0.00 | 91 | 1014.6 |
| 20260510060407 | 51 | 355 | 1.0 | 3.0 | 0.00 | 0.00 | 0.00 | 92 | 1014.6 |
| 20260510055405 | 51 | 347 | 2.0 | 4.0 | 0.00 | 0.00 | 0.00 | 93 | 1014.6 |
| 20260510054404 | 50 | 327 | 2.0 | 5.0 | 0.00 | 0.00 | 0.00 | 94 | 1014.5 |
| 20260510053404 | 49 | 360 | 3.0 | 5.0 | 0.00 | 0.00 | 0.00 | 95 | 1014.4 |
| 20260510052404 | 48 | 11 | 4.0 | 7.0 | 0.00 | 0.00 | 0.00 | 95 | 1014.4 |
| 20260510051404 | 48 | 331 | 3.0 | 4.0 | 0.00 | 0.00 | 0.00 | 95 | 1014.5 |
| 20260510050404 | 47 | 337 | 2.0 | 4.0 | 0.00 | 0.00 | 0.00 | 95 | 1014.5 |
| 20260510045405 | 46 | 337 | 2.0 | 3.0 | 0.00 | 0.00 | 0.00 | 95 | 1014.5 |
| 20260510044405 | 45 | 338 | 2.0 | 3.0 | 0.00 | 0.00 | 0.00 | 95 | 1014.6 |
| 20260510042408 | 45 | 360 | 0.0 | 1.0 | 0.00 | 0.00 | 0.00 | 95 | 1014.6 |
| 20260510041405 | 44 | 360 | 0.0 | 1.0 | 0.00 | 0.00 | 0.00 | 95 | 1014.5 |
| 20260510040405 | 44 | 344 | 0.0 | 1.0 | 0.00 | 0.00 | 0.00 | 95 | 1014.5 |
| 20260510035405 | 44 | 5 | 0.0 | 0.0 | 0.00 | 0.00 | 0.00 | 94 | 1014.6 |
| 20260510034408 | 44 | 5 | 0.0 | 1.0 | 0.00 | 0.00 | 0.00 | 94 | 1014.4 |
| 20260510032405 | 44 | 5 | 1.0 | 2.0 | 0.00 | 0.00 | 0.00 | 94 | 1014.5 |
| 20260510031405 | 44 | 5 | 1.0 | 2.0 | 0.00 | 0.00 | 0.00 | 94 | 1014.6 |
| 20260510030405 | 44 | 5 | 1.0 | 2.0 | 0.00 | 0.00 | 0.00 | 94 | 1014.7 |
| 20260510025406 | 45 | 5 | 1.0 | 2.0 | 0.00 | 0.00 | 0.00 | 94 | 1014.9 |
| 20260510024406 | 45 | 5 | 1.0 | 2.0 | 0.00 | 0.00 | 0.00 | 93 | 1014.9 |
| 20260510023405 | 46 | 5 | 1.0 | 2.0 | 0.00 | 0.00 | 0.00 | 93 | 1014.8 |
| 20260510021406 | 47 | 5 | 0.0 | 1.0 | 0.00 | 0.00 | 0.00 | 93 | 1015.0 |
| 20260510020408 | 47 | 5 | 0.0 | 2.0 | 0.00 | 0.00 | 0.00 | 93 | 1015.1 |
| 20260510015406 | 46 | 5 | 1.0 | 2.0 | 0.00 | 0.00 | 0.00 | 93 | 1015.1 |
| 20260510014406 | 46 | 5 | 2.0 | 4.0 | 0.00 | 0.00 | 0.00 | 93 | 1015.1 |
| 20260510013406 | 46 | 5 | 2.0 | 3.0 | 0.00 | 0.00 | 0.00 | 93 | 1015.2 |
| 20260510012406 | 46 | 5 | 2.0 | 4.0 | 0.00 | 0.00 | 0.00 | 92 | 1015.1 |
| 20260510011406 | 47 | 46 | 1.0 | 2.0 | 0.00 | 0.00 | 0.00 | 92 | 1015.0 |
| 20260510010406 | 47 | 46 | 1.0 | 2.0 | 0.00 | 0.00 | 0.00 | 92 | 1015.1 |
| 20260510005407 | 47 | 46 | 0.0 | 0.0 | 0.00 | 0.00 | 0.00 | 92 | 1015.1 |
| 20260510004406 | 48 | 46 | 1.0 | 2.0 | 0.00 | 0.00 | 0.00 | 91 | 1015.2 |
| 20260510003406 | 48 | 46 | 1.0 | 2.0 | 0.00 | 0.00 | 0.00 | 91 | 1015.2 |
| 20260510002406 | 48 | 46 | 1.0 | 2.0 | 0.00 | 0.00 | 0.00 | 91 | 1015.2 |
| 20260510001406 | 49 | 46 | 0.0 | 0.0 | 0.00 | 0.00 | 0.00 | 90 | 1015.4 |
| 20260510000406 | 49 | 46 | 0.0 | 0.0 | 0.00 | 0.00 | 0.00 | 89 | 1015.6 |
| 20260509235407 | 50 | 46 | 0.0 | 1.0 | 0.00 | 0.00 | 0.00 | 88 | 1015.8 |
| 20260509234406 | 50 | 46 | 1.0 | 2.0 | 0.00 | 0.00 | 0.00 | 88 | 1015.8 |
| 20260509232406 | 51 | 46 | 1.0 | 2.0 | 0.00 | 0.00 | 0.00 | 87 | 1016.0 |
| 20260509231407 | 51 | 46 | 1.0 | 3.0 | 0.00 | 0.00 | 0.00 | 86 | 1016.0 |
| 20260509230407 | 51 | 55 | 0.0 | 2.0 | 0.00 | 0.00 | 0.00 | 85 | 1016.0 |
| 20260509225407 | 52 | 55 | 1.0 | 2.0 | 0.00 | 0.00 | 0.00 | 84 | 1015.9 |
| 20260509224407 | 53 | 84 | 1.0 | 2.0 | 0.00 | 0.00 | 0.00 | 83 | 1016.1 |
| 20260509223407 | 54 | 84 | 1.0 | 2.0 | 0.00 | 0.00 | 0.00 | 81 | 1016.1 |
| 20260509222407 | 55 | 84 | 0.0 | 2.0 | 0.00 | 0.00 | 0.00 | 80 | 1016.3 |
| 20260509221410 | 55 | 84 | 1.0 | 3.0 | 0.00 | 0.00 | 0.00 | 79 | 1016.3 |
| 20260509215408 | 56 | 67 | 1.0 | 3.0 | 0.00 | 0.00 | 0.00 | 77 | 1016.4 |
| 20260509214407 | 56 | 67 | 2.0 | 4.0 | 0.00 | 0.00 | 0.00 | 76 | 1016.6 |
| 20260509213408 | 57 | 62 | 2.0 | 4.0 | 0.00 | 0.00 | 0.00 | 75 | 1016.5 |
| 20260509212407 | 57 | 89 | 2.0 | 5.0 | 0.00 | 0.00 | 0.00 | 74 | 1016.5 |
| 20260509211408 | 57 | 80 | 3.0 | 7.0 | 0.00 | 0.00 | 0.00 | 75 | 1016.6 |
| 20260509210410 | 57 | 103 | 2.0 | 6.0 | 0.00 | 0.00 | 0.00 | 75 | 1016.7 |
| 20260509205408 | 57 | 66 | 2.0 | 4.0 | 0.00 | 0.00 | 0.00 | 75 | 1016.8 |
| 20260509204408 | 58 | 76 | 1.0 | 3.0 | 0.00 | 0.00 | 0.00 | 74 | 1016.8 |
| 20260509203408 | 58 | 35 | 2.0 | 7.0 | 0.00 | 0.00 | 0.00 | 74 | 1016.7 |
| 20260509202408 | 58 | 49 | 1.0 | 4.0 | 0.00 | 0.00 | 0.00 | 74 | 1016.7 |
| 20260509201411 | 58 | 15 | 1.0 | 4.0 | 0.00 | 0.00 | 0.00 | 74 | 1016.8 |
| 20260509200408 | 58 | 53 | 1.0 | 4.0 | 0.00 | 0.00 | 0.00 | 74 | 1016.7 |
| 20260509195408 | 58 | 46 | 1.0 | 4.0 | 0.00 | 0.00 | 0.00 | 73 | 1016.7 |
| 20260509194408 | 59 | 52 | 1.0 | 4.0 | 0.00 | 0.00 | 0.00 | 73 | 1016.8 |
| 20260509193408 | 59 | 61 | 1.0 | 3.0 | 0.00 | 0.00 | 0.00 | 71 | 1016.6 |
| 20260509192411 | 59 | 40 | 1.0 | 3.0 | 0.00 | 0.00 | 0.00 | 70 | 1016.6 |
| 20260509190408 | 60 | 69 | 1.0 | 3.0 | 0.00 | 0.00 | 0.00 | 69 | 1016.5 |
| 20260509185408 | 60 | 109 | 2.0 | 8.0 | 0.00 | 0.00 | 0.00 | 68 | 1016.5 |
| 20260509184408 | 60 | 80 | 1.0 | 3.0 | 0.00 | 0.00 | 0.00 | 68 | 1016.4 |
| 20260509183408 | 61 | 81 | 1.0 | 3.0 | 0.00 | 0.00 | 0.00 | 67 | 1016.5 |
| 20260509182408 | 61 | 73 | 2.0 | 5.0 | 0.00 | 0.00 | 0.00 | 66 | 1016.5 |
| 20260509181408 | 61 | 82 | 3.0 | 8.0 | 0.00 | 0.00 | 0.00 | 66 | 1016.6 |
| 20260509175409 | 62 | 62 | 3.0 | 8.0 | 0.00 | 0.00 | 0.00 | 65 | 1016.3 |
| 20260509174409 | 62 | 98 | 2.0 | 6.0 | 0.00 | 0.00 | 0.00 | 65 | 1016.3 |
| 20260509173409 | 62 | 87 | 5.0 | 10.0 | 0.00 | 0.00 | 0.00 | 64 | 1016.4 |
| 20260509172409 | 62 | 98 | 4.0 | 10.0 | 0.00 | 0.00 | 0.00 | 63 | 1016.3 |
| 20260509170409 | 62 | 98 | 3.0 | 6.0 | 0.00 | 0.00 | 0.00 | 63 | 1016.2 |
| 20260509165409 | 63 | 92 | 5.0 | 10.0 | 0.00 | 0.00 | 0.00 | 62 | 1016.2 |
| 20260509164412 | 63 | 132 | 5.0 | 9.0 | 0.00 | 0.00 | 0.00 | 61 | 1016.3 |
| 20260509163409 | 63 | 83 | 5.0 | 11.0 | 0.00 | 0.00 | 0.00 | 61 | 1016.3 |
| 20260509162409 | 63 | 101 | 3.0 | 6.0 | 0.00 | 0.00 | 0.00 | 60 | 1016.3 |
| 20260509161409 | 63 | 77 | 5.0 | 11.0 | 0.00 | 0.00 | 0.00 | 60 | 1016.5 |
| 20260509160409 | 64 | 79 | 5.0 | 9.0 | 0.00 | 0.00 | 0.00 | 59 | 1016.5 |
| 20260509155409 | 64 | 108 | 2.0 | 4.0 | 0.00 | 0.00 | 0.00 | 58 | 1016.6 |
| 20260509154412 | 65 | 91 | 4.0 | 9.0 | 0.00 | 0.00 | 0.00 | 57 | 1016.6 |
| 20260509153409 | 65 | 78 | 4.0 | 9.0 | 0.00 | 0.00 | 0.00 | 58 | 1016.7 |
| 20260509150410 | 65 | 82 | 4.0 | 8.0 | 0.00 | 0.00 | 0.00 | 58 | 1017.2 |
| 20260509145410 | 65 | 96 | 6.0 | 13.0 | 0.00 | 0.00 | 0.00 | 56 | 1017.3 |
| 20260509144410 | 66 | 106 | 4.0 | 10.0 | 0.00 | 0.00 | 0.00 | 56 | 1017.2 |
| 20260509142501 | 65 | 128 | 4.0 | 16.0 | 0.00 | 0.00 | 0.00 | 56 | 1017.3 |
| 20260509142401 | 66 | 71 | 7.0 | 16.0 | 0.00 | 0.00 | 0.00 | 54 | 1017.4 |
| 20260509141401 | 66 | 132 | 6.0 | 12.0 | 0.00 | 0.00 | 0.00 | 55 | 1017.5 |
| 20260509140404 | 66 | 92 | 5.0 | 11.0 | 0.00 | 0.00 | 0.00 | 56 | 1017.7 |
| 20260509135401 | 64 | 88 | 4.0 | 9.0 | 0.00 | 0.00 | 0.00 | 57 | 1017.8 |
| 20260509133401 | 65 | 123 | 3.0 | 10.0 | 0.00 | 0.00 | 0.00 | 56 | 1017.9 |
| 20260509132401 | 64 | 101 | 8.0 | 14.0 | 0.00 | 0.00 | 0.00 | 57 | 1018.0 |
| 20260509131401 | 65 | 87 | 5.0 | 11.0 | 0.00 | 0.00 | 0.00 | 56 | 1018.1 |
| 20260509130402 | 64 | 88 | 3.0 | 9.0 | 0.00 | 0.00 | 0.00 | 58 | 1018.3 |
| 20260509125402 | 64 | 144 | 4.0 | 9.0 | 0.00 | 0.00 | 0.00 | 56 | 1018.3 |
| 20260509123402 | 63 | 78 | 5.0 | 10.0 | 0.00 | 0.00 | 0.00 | 59 | 1018.6 |
| 20260509122402 | 63 | 74 | 4.0 | 11.0 | 0.00 | 0.00 | 0.00 | 58 | 1018.7 |
| 20260509121402 | 63 | 98 | 6.0 | 13.0 | 0.00 | 0.00 | 0.00 | 59 | 1018.7 |
| 20260509120402 | 63 | 90 | 4.0 | 9.0 | 0.00 | 0.00 | 0.00 | 60 | 1018.9 |
| 20260509115402 | 63 | 59 | 7.0 | 12.0 | 0.00 | 0.00 | 0.00 | 59 | 1019.0 |
| 20260509114405 | 63 | 52 | 5.0 | 10.0 | 0.00 | 0.00 | 0.00 | 59 | 1019.0 |
| 20260509113402 | 62 | 76 | 4.0 | 9.0 | 0.00 | 0.00 | 0.00 | 60 | 1019.2 |
| 20260509112405 | 62 | 123 | 4.0 | 9.0 | 0.00 | 0.00 | 0.00 | 60 | 1019.3 |
| 20260509111405 | 62 | 93 | 6.0 | 11.0 | 0.00 | 0.00 | 0.00 | 61 | 1019.3 |
| 20260509110405 | 62 | 54 | 4.0 | 9.0 | 0.00 | 0.00 | 0.00 | 63 | 1019.4 |
| 20260509105402 | 62 | 117 | 5.0 | 10.0 | 0.00 | 0.00 | 0.00 | 60 | 1019.5 |
| 20260509104402 | 61 | 69 | 4.0 | 8.0 | 0.00 | 0.00 | 0.00 | 62 | 1019.6 |
| 20260509103402 | 60 | 56 | 3.0 | 9.0 | 0.00 | 0.00 | 0.00 | 63 | 1019.7 |
| 20260509102403 | 60 | 113 | 5.0 | 12.0 | 0.00 | 0.00 | 0.00 | 62 | 1019.8 |
| 20260509101403 | 61 | 153 | 5.0 | 9.0 | 0.00 | 0.00 | 0.00 | 63 | 1019.8 |
| 20260509100403 | 60 | 111 | 4.0 | 10.0 | 0.00 | 0.00 | 0.00 | 63 | 1019.8 |